TimeCDT,TemperatureF,Dew PointF,Humidity,Sea Level PressureIn,VisibilityMPH,Wind Direction,Wind SpeedMPH,Gust SpeedMPH,PrecipitationIn,Events,Conditions,WindDirDegrees,DateUTC
12:15 AM,32.0,32.0,100,29.96,7.0,SE,5.8,-,N/A,,Clear,130,2012-10-31 05:15:00
12:35 AM,32.0,32.0,100,29.95,6.0,SE,5.8,-,N/A,,Clear,130,2012-10-31 05:35:00
12:55 AM,32.0,32.0,100,29.95,7.0,SSE,4.6,-,N/A,,Clear,150,2012-10-31 05:55:00
1:15 AM,32.0,32.0,100,29.96,9.0,SE,5.8,-,N/A,,Clear,140,2012-10-31 06:15:00
1:35 AM,32.0,32.0,100,29.96,7.0,SSE,5.8,-,N/A,,Clear,160,2012-10-31 06:35:00
1:55 AM,32.0,32.0,100,29.96,9.0,SE,4.6,-,N/A,,Clear,140,2012-10-31 06:55:00
2:15 AM,32.0,32.0,100,29.96,5.0,SSE,4.6,-,N/A,,Clear,160,2012-10-31 07:15:00
2:35 AM,32.0,32.0,100,29.95,5.0,SSE,3.5,-,N/A,,Clear,150,2012-10-31 07:35:00
2:55 AM,30.2,30.2,100,29.95,6.0,Calm,Calm,-,N/A,,Clear,0,2012-10-31 07:55:00
3:15 AM,30.2,30.2,100,29.95,6.0,Calm,Calm,-,N/A,,Clear,0,2012-10-31 08:15:00
3:35 AM,30.2,30.2,100,29.94,5.0,Calm,Calm,-,N/A,,Clear,0,2012-10-31 08:35:00
3:55 AM,32.0,32.0,100,29.95,5.0,SE,5.8,-,N/A,,Clear,130,2012-10-31 08:55:00
4:15 AM,32.0,32.0,100,29.94,6.0,SE,5.8,-,N/A,,Clear,130,2012-10-31 09:15:00
4:35 AM,32.0,32.0,100,29.94,5.0,ESE,4.6,-,N/A,,Partly Cloudy,120,2012-10-31 09:35:00
4:55 AM,32.0,32.0,100,29.94,5.0,ESE,5.8,-,N/A,,Clear,120,2012-10-31 09:55:00
5:15 AM,32.0,32.0,100,29.94,5.0,East,5.8,-,N/A,,Partly Cloudy,100,2012-10-31 10:15:00
5:35 AM,32.0,32.0,100,29.94,7.0,SE,3.5,-,N/A,,Clear,140,2012-10-31 10:35:00
5:55 AM,32.0,32.0,100,29.94,5.0,SSW,3.5,-,N/A,,Clear,210,2012-10-31 10:55:00
6:15 AM,32.0,32.0,100,29.94,8.0,Calm,Calm,-,N/A,,Clear,0,2012-10-31 11:15:00
6:35 AM,32.0,32.0,100,29.94,7.0,SW,3.5,-,N/A,,Clear,220,2012-10-31 11:35:00
6:55 AM,32.0,32.0,100,29.94,7.0,Calm,Calm,-,N/A,,Mostly Cloudy,0,2012-10-31 11:55:00
7:15 AM,32.0,32.0,100,29.94,7.0,Calm,Calm,-,N/A,,Overcast,0,2012-10-31 12:15:00
7:35 AM,32.0,32.0,100,29.94,5.0,Calm,Calm,-,N/A,,Mostly Cloudy,0,2012-10-31 12:35:00
7:55 AM,32.0,32.0,100,29.94,5.0,Calm,Calm,-,N/A,,Mostly Cloudy,0,2012-10-31 12:55:00
8:15 AM,33.8,33.8,100,29.94,6.0,SSE,3.5,-,N/A,,Mostly Cloudy,160,2012-10-31 13:15:00
8:35 AM,35.6,35.6,100,29.94,7.0,Calm,Calm,-,N/A,,Mostly Cloudy,0,2012-10-31 13:35:00
8:55 AM,37.4,37.4,100,29.96,8.0,NNW,5.8,-,N/A,,Overcast,330,2012-10-31 13:55:00
9:15 AM,37.4,37.4,100,29.95,8.0,Calm,Calm,-,N/A,,Mostly Cloudy,0,2012-10-31 14:15:00
9:35 AM,39.2,39.2,100,29.94,9.0,South,3.5,-,N/A,,Mostly Cloudy,180,2012-10-31 14:35:00
9:55 AM,41.0,41.0,100,29.94,10.0,SSW,4.6,-,N/A,,Partly Cloudy,200,2012-10-31 14:55:00
10:15 AM,44.6,44.6,100,29.94,10.0,SW,6.9,-,N/A,,Mostly Cloudy,230,2012-10-31 15:15:00
10:35 AM,46.4,46.4,100,29.95,10.0,West,8.1,-,N/A,,Overcast,280,2012-10-31 15:35:00
10:55 AM,48.2,46.4,93,29.95,10.0,WNW,9.2,-,N/A,,Mostly Cloudy,300,2012-10-31 15:55:00
11:15 AM,48.2,44.6,87,29.96,10.0,NW,10.4,-,N/A,,Overcast,310,2012-10-31 16:15:00
11:35 AM,48.2,44.6,87,29.97,10.0,NW,13.8,-,N/A,,Mostly Cloudy,310,2012-10-31 16:35:00
11:55 AM,48.2,42.8,82,29.97,10.0,NNW,12.7,-,N/A,,Mostly Cloudy,340,2012-10-31 16:55:00
12:15 PM,46.4,42.8,87,29.98,10.0,NNW,13.8,-,N/A,,Mostly Cloudy,330,2012-10-31 17:15:00
12:35 PM,44.6,41.0,87,29.98,10.0,NNW,11.5,-,N/A,,Mostly Cloudy,330,2012-10-31 17:35:00
12:55 PM,44.6,41.0,87,29.99,10.0,NNW,17.3,20.7,N/A,,Overcast,340,2012-10-31 17:55:00
1:15 PM,41.0,41.0,100,29.99,9.0,NNW,18.4,23.0,N/A,,Overcast,330,2012-10-31 18:15:00
1:55 PM,42.8,42.8,100,30.00,9.0,NNW,13.8,18.4,N/A,,Overcast,330,2012-10-31 18:55:00
2:15 PM,42.8,41.0,93,29.99,10.0,NNW,17.3,23.0,N/A,,Overcast,340,2012-10-31 19:15:00
2:35 PM,41.0,41.0,100,30.00,8.0,NNW,15.0,-,N/A,,Overcast,330,2012-10-31 19:35:00
2:55 PM,41.0,41.0,100,30.00,7.0,NNW,19.6,24.2,N/A,,Overcast,340,2012-10-31 19:55:00
3:15 PM,41.0,41.0,100,30.02,6.0,NNW,13.8,21.9,N/A,,Overcast,340,2012-10-31 20:15:00
3:35 PM,41.0,41.0,100,30.02,7.0,NNW,15.0,-,N/A,,Overcast,330,2012-10-31 20:35:00
3:55 PM,39.2,39.2,100,30.03,7.0,NNW,13.8,19.6,N/A,,Overcast,330,2012-10-31 20:55:00
4:35 PM,39.2,39.2,100,30.05,9.0,NNW,13.8,-,N/A,,Overcast,340,2012-10-31 21:35:00
4:55 PM,39.2,39.2,100,30.06,8.0,NNW,15.0,-,N/A,,Overcast,340,2012-10-31 21:55:00
5:35 PM,39.2,39.2,100,30.07,4.0,North,16.1,19.6,N/A,,Overcast,350,2012-10-31 22:35:00
5:55 PM,39.2,39.2,100,30.09,3.0,NNW,10.4,-,N/A,,Overcast,340,2012-10-31 22:55:00
6:15 PM,39.2,39.2,100,30.09,4.0,NNW,10.4,-,N/A,,Overcast,340,2012-10-31 23:15:00
6:35 PM,39.2,39.2,100,30.09,10.0,North,8.1,-,N/A,,Overcast,350,2012-10-31 23:35:00
6:55 PM,39.2,39.2,100,30.09,10.0,North,10.4,-,N/A,,Overcast,350,2012-10-31 23:55:00
7:15 PM,39.2,39.2,100,30.10,10.0,NNW,11.5,-,N/A,,Overcast,340,2012-11-01 00:15:00
7:35 PM,37.4,37.4,100,30.10,10.0,NNW,10.4,-,N/A,,Overcast,340,2012-11-01 00:35:00
7:55 PM,37.4,37.4,100,30.10,10.0,NNW,10.4,-,N/A,,Overcast,330,2012-11-01 00:55:00
8:15 PM,37.4,37.4,100,30.10,10.0,NNW,10.4,-,N/A,,Overcast,340,2012-11-01 01:15:00
8:35 PM,37.4,35.6,93,30.10,10.0,North,12.7,-,N/A,,Overcast,350,2012-11-01 01:35:00
8:55 PM,37.4,35.6,93,30.10,10.0,North,10.4,-,N/A,,Overcast,350,2012-11-01 01:55:00
9:15 PM,37.4,35.6,93,30.10,10.0,North,10.4,-,N/A,,Overcast,360,2012-11-01 02:15:00
9:35 PM,37.4,35.6,93,30.11,10.0,North,9.2,-,N/A,,Overcast,360,2012-11-01 02:35:00
9:55 PM,37.4,37.4,100,30.11,10.0,NNE,6.9,-,N/A,,Overcast,20,2012-11-01 02:55:00
10:15 PM,37.4,37.4,100,30.12,10.0,NNE,6.9,-,N/A,,Overcast,20,2012-11-01 03:15:00
10:35 PM,35.6,35.6,100,30.12,10.0,NE,8.1,-,N/A,,Overcast,40,2012-11-01 03:35:00
10:55 PM,35.6,35.6,100,30.11,10.0,NE,8.1,-,N/A,,Overcast,40,2012-11-01 03:55:00
11:15 PM,35.6,35.6,100,30.11,10.0,NE,6.9,-,N/A,,Overcast,50,2012-11-01 04:15:00
11:35 PM,35.6,33.8,93,30.12,10.0,NNE,4.6,-,N/A,,Overcast,30,2012-11-01 04:35:00
11:55 PM,33.8,32.0,93,30.13,10.0,NNW,4.6,-,N/A,,Overcast,340,2012-11-01 04:55:00